This demonstration page uses our WeatherBlox Daily Observations layout. Learn more.

Left ArrowRight Arrow

34.02893, -84.19858

Hourly Observations for February 20, 2022

Temp ( °F °C ) Dew Point ( °F °C ) Humidity (%) Winds ( mph kmh ) Pressure ( in mb ) Visibility ( mi km ) Precip ( " mm )
12:53 am 00:53 Clear 38 3.3 22 -5.6 52 52 NW 6 9 30.37 1028 10 16 0.00 0.00
1:53 am 01:53 Clear 36 2.2 21 -6.1 55 55 N 3 6 30.37 1029 10 16 0.00 0.00
2:53 am 02:53 Clear 34 1.1 21 -6.1 59 59 NNW 7 11 30.37 1029 10 16 0.00 0.00
3:53 am 03:53 Clear 32 0 20 -6.7 61 61 NNW 3 6 30.37 1028 10 16 0.00 0.00
4:53 am 04:53 Clear 29 -1.7 22 -5.6 75 75 Calm 30.39 1029 10 16 0.00 0.00
5:53 am 05:53 Clear 28 -2.2 22 -5.6 78 78 Calm 30.42 1030 10 16 0.00 0.00
6:53 am 06:53 Clear 28 -2.2 22 -5.6 78 78 Calm 30.45 1031 10 16 0.00 0.00
7:53 am 07:53 Sunny 34 1.1 22 -5.6 61 61 VRB 3 6 30.46 1032 10 16 0.00 0.00
8:53 am 08:53 Sunny 40 4.4 20 -6.7 45 45 Calm 30.47 1032 10 16 0.00 0.00
9:53 am 09:53 Sunny 45 7.2 18 -7.8 34 34 VRB 5 7 30.47 1032 10 16 0.00 0.00
10:53 am 10:53 Sunny 49 9.4 14 -10 25 25 ESE 8 13 30.46 1032 10 16 0.00 0.00
11:53 am 11:53 Sunny 52 11.1 14 -10 22 22 VRB 7 11 30.44 1031 10 16 0.00 0.00
12:53 pm 12:53 Sunny 54 12.2 17 -8.3 23 23 S 9 15 30.41 1030 10 16 0.00 0.00
1:53 pm 13:53 Sunny 56 13.3 17 -8.3 22 22 VRB 6 9 30.37 1028 10 16 0.00 0.00
2:53 pm 14:53 Sunny 58 14.4 20 -6.7 23 23 S 6 9 30.35 1028 10 16 0.00 0.00
3:53 pm 15:53 Sunny 58 14.4 20 -6.7 23 23 S 9 15 30.33 1027 10 16 0.00 0.00
5:53 pm 17:53 Sunny 57 13.9 22 -5.6 26 26 VRB 6 9 30.32 1027 10 16 0.00 0.00
6:53 pm 18:53 Clear 51 10.6 22 -5.6 32 32 Calm 30.33 1027 10 16 0.00 0.00
7:53 pm 19:53 Clear 49 9.4 24 -4.4 38 38 E 3 6 30.33 1027 10 16 0.00 0.00
8:53 pm 20:53 Clear 49 9.4 25 -3.9 39 39 E 3 6 30.33 1027 10 16 0.00 0.00
9:53 pm 21:53 Clear 48 8.9 25 -3.9 41 41 E 3 6 30.33 1027 10 16 0.00 0.00
10:53 pm 22:53 Cloudy 48 8.9 26 -3.3 42 42 VRB 3 6 30.32 1027 9 14 0.00 0.00
11:53 pm 23:53 Partly Cloudy 49 9.4 26 -3.3 41 41 VRB 3 6 30.32 1027 9 14 0.00 0.00

Powered by AerisWeather